Regional Weather Roundup
Issued by NWS

Home | Current Version | Previous Version | Graphics & Text | Print | Product List | Glossary On
Versions: 1 2 3 4 5 6 7 8 9 10 11 12 13 14 15 16 17 18 19 20 21 22 23 24 25 26 27 28 29 30 31 32 33 34 35 36 37 38 39 40 41 42 43 44 45 46 47 48 49 50
000
ASUS45 KTFX 232319
RWRMT
MONTANA HOURLY WEATHER ROUNDUP
NATIONAL WEATHER SERVICE GREAT FALLS MT
519 PM MDT TUE SEP 23 2014

NOTE: "FAIR" INDICATES FEW OR NO CLOUDS BELOW 12000 FEET WITH NO
SIGNIFICANT WEATHER AND/OR OBSTRUCTIONS TO VISIBILITY.

* THESE STATIONS ARE NOT UNDER NWS QUALITY CONTROL. THEY DO NOT
   REPORT WEATHER SUCH AS PRECIPITATION OR FOG.

MTZ001>007-043-240000-
WEST OF THE DIVIDE
CITY           SKY/WX    TMP DP  RH WIND       PRES   REMARKS
KALISPELL      MOCLDY    75  50  42 S7        29.93F
MISSOULA       MOCLDY    81  46  29 SE7       29.94F
BUTTE          CLOUDY    73  43  34 CALM      30.09F
MULLAN PASS    PTCLDY    63  46  54 VRB5      30.08S
* ESSEX        N/A       71  47  43 W2         N/A
* LINCOLN      N/A       77  42  29 S6G15      N/A
* POLSON       N/A       77  50  39 NW3        N/A
* RONAN APT    PTCLDY    81  48  32 NW8        N/A
* SEELEY LAKE  N/A       79  43  28 S4G9       N/A
* THOMP F APT  PTCLDY    66  48  52 S8G14      N/A
$$

MTZ008-052>055-240000-
SOUTHWEST MONTANA
CITY           SKY/WX    TMP DP  RH WIND       PRES   REMARKS
BOZEMAN        PTCLDY    77  46  33 N5        30.03F
DILLON         CLOUDY    73  46  38 E10       30.08F
W YELLOWSTONE  MOCLDY    63  46  54 SW13      30.23F
* THREE FORKS  MOCLDY    79  79 100 N/A        N/A
* BOULDER HILL N/A       65  47  52 NE8        N/A
* MONIDA PASS  N/A       63  48  58 SE13G20    N/A
* RAYNOLDS PAS N/A       64  41  43 SE9G17     N/A
* WHITEHALL    N/A       80  48  33 SW13G20    N/A
* WISE RIVER   N/A       72  44  37 SE5G11     N/A
$$

MTZ009>010-012-014-046-048-049-054-240000-
EAST SLOPES AND CENTRAL MONTANA
CITY           SKY/WX    TMP DP  RH WIND       PRES   REMARKS
CUT BANK       MOCLDY    70  48  46 S20G33    29.98R
GREAT FALLS    PTCLDY    77  45  32 SW12      29.95F
HELENA         CLOUDY    66  54  65 S6        30.04F
MALMSTROM AFB  PTCLDY    81  43  26 W13G18    29.96S
* CONRAD       MOCLDY    79  48  34 N/A        N/A
* EAST GLACIER N/A       68  47  47 W12G17     N/A
* MONARCH      N/A       74  40  29 SW6G11     N/A
* PENDROY      N/A       64  58  81 NW7G13     N/A
* ROGERS PASS  N/A       69  41  36 SE5G10     N/A
* SAINT MARY   N/A       66  42  42 S4G15      N/A
* SWEET GRASS  N/A       75  42  31 VRB3G8     N/A
* WHITE SULPH  N/A       75  38  26 S5G11      N/A
$$

MTZ011-013-016-021-035-040-045-047-050-051-240000-
NORTH CENTRAL MONTANA
CITY           SKY/WX    TMP DP  RH WIND       PRES   REMARKS
HAVRE          CLOUDY    81  46  29 NW15      29.90S
LEWISTOWN      PTCLDY    81  46  29 N6        30.00S
* CHINOOK      MOCLDY    79  50  36 W8        29.89R
* FORT BENTON  PTCLDY    82  46  28 W6        29.91F
* CHESTER      N/A       79  41  26 NW11G22    N/A
* DENTON       N/A       80  46  30 NW8        N/A
* GEYSER       N/A       79  46  31 W9         N/A
* JUDITH GAP   N/A       77  47  35 N4         N/A
* LOMA         N/A       82  47  29 N4G9       N/A
$$

MTZ017>020-022>027-061-062-240000-
NORTHEAST MONTANA
CITY           SKY/WX    TMP DP  RH WIND       PRES   REMARKS
GLASGOW        CLEAR     82  52  35 NW10      29.84S
GLENDIVE       CLEAR     79  52  39 NW12      29.88R
SIDNEY         CLEAR    N/A N/A N/A NW8       29.83F
WOLF POINT     CLEAR     84  52  33 W10       29.83S
* BEAVER HILL  N/A       81  50  34 W11        N/A
* CIRCLE       N/A       82  55  40 SW6        N/A   HI  81
* LINDSAY DVD  N/A       80  49  34 W12G17     N/A
* NAVAJO       N/A       85  45  25 W10G16     N/A
$$

MTZ028>042-056>058-240000-
SOUTHCENTRAL AND SOUTHEAST MONTANA
CITY           SKY/WX    TMP DP  RH WIND       PRES   REMARKS
BAKER          MOCLDY    82  52  35 NW13      29.90S
BILLINGS       FAIR      84  41  22 CALM      29.97F
LIVINGSTON     PTCLDY    81  45  28 SW16G22   30.03S
MILES CITY     CLEAR     86  45  24 NW13      29.89R
* LAUREL APT   PTCLDY    84  43  24 W9         N/A
* ROUNDUP APT  PTCLDY    82  46  28 N8         N/A
* ALZADA       N/A       80  50  35 W9         N/A
* HYSHAM       N/A       82  46  28 NW4G9      N/A
* LAME DEER    N/A       78  46  32 NW5G11     N/A
* REED POINT   N/A       82  47  29 W13G20     N/A
* ROSCOE HILL  N/A       75  37  25 NE10       N/A
$$

REGIONAL REPORTS...DAKOTAS
CITY           SKY/WX    TMP DP  RH WIND       PRES   REMARKS
WILLISTON      CLEAR     84  52  33 S6        29.82S
DICKINSON      CLEAR     79  59  50 SE9       29.84S
BEACH          N/A       81  52  37 NW9       29.89R
CROSBY         CLEAR     82  52  35 S6        29.81F
TIOGA          CLEAR     81  54  39 SW6       29.87S
WATFORD CITY   CLEAR     82  54  38 S7        29.81S
BISMARCK       CLOUDY    64  57  78 SE16      29.93S
GRAND FORKS    PTCLDY    73  48  41 S20G26    29.97R
FARGO          CLOUDY    66  52  61 S14       30.03S
BUFFALO SD     CLEAR     82  48  31 NW14G22   29.83S
RAPID CITY     CLEAR     81  54  39 VRB3      29.92S
$$

REGIONAL REPORTS...WYOMING/IDAHO/WASHINGTON
CITY           SKY/WX    TMP DP  RH WIND       PRES   REMARKS
GILLETTE       LGT RAIN  79  43  28 NW15      30.02R
SHERIDAN       PTCLDY    82  46  28 N9        30.01S
CODY           PTCLDY    77  43  30 N7        30.08S
YELLOWSTONE LA PTCLDY    63  46  54 CALM      30.32F
SALMON         CLOUDY    72  55  55 N6        30.00F
MULLAN PASS    PTCLDY    63  46  54 VRB5      30.08S
SAND POINT     CLOUDY    68  57  68 NE3       29.89F
SPOKANE        CLOUDY    75  52  45 SW15      29.87F
$$

REGIONAL REPORTS...ALBERTA
CITY           SKY/WX    TMP DP  RH WIND       PRES   REMARKS
CALGARY        FAIR      66  52  61 S9        29.90F
LETHBRIDGE     PTCLDY    75  48  39 VRB2      29.91F
MEDICINE HAT   FAIR      70  54  57 N3        29.90S
EDMONTON       MOCLDY    66  48  52 SW5       29.86F
WATERTON GATE  N/A       68  45  44 W8         N/A
CARDSTON       N/A       73  48  41 SW7        N/A
MILK RIVER     N/A       77  45  32 NW6        N/A
$$

REGIONAL REPORTS...SASKATCHEWAN
CITY           SKY/WX    TMP DP  RH WIND       PRES   REMARKS
SWIFT CURRENT  MOCLDY    77  48  36 W17       29.83R
MOOSE JAW      MOCLDY    79  55  44 NW7       29.79S
REGINA         MOCLDY    81  55  41 NW10      29.78S HI  81
VAL MARIE      N/A       82  46  28 W15G22     N/A
ASSINIBOIA     N/A       82  43  25 NW6        N/A
CORONACH       N/A       82  43  25 NW12       N/A

$$




USA.gov is the U.S. government's official web portal to all federal, state and local government web resources and services.